Time,TemperatureF,DewpointF,PressureIn,WindDirection,WindDirectionDegrees,WindSpeedMPH,WindSpeedGustMPH,Humidity,HourlyPrecipIn,Conditions,Clouds,dailyrainin,SoftwareType,DateUTC
2016-02-10 00:03:00,17.9,12.5,30.00,West,275,3.0,10.0,79,0.00,,,0.00,Wunderground v.1.15,2016-02-10 05:03:00,
2016-02-10 00:14:00,17.5,12.1,30.00,WSW,251,6.0,9.0,79,0.00,,,0.00,Wunderground v.1.15,2016-02-10 05:14:00,
2016-02-10 00:20:00,17.3,11.9,30.00,WSW,248,5.0,5.0,79,0.00,,,0.00,Wunderground v.1.15,2016-02-10 05:20:00,
2016-02-10 00:25:00,17.3,12.2,30.00,WSW,256,5.0,5.0,80,0.00,,,0.00,Wunderground v.1.15,2016-02-10 05:25:00,
2016-02-10 00:31:00,17.2,12.1,30.00,WSW,244,6.0,6.0,80,0.00,,,0.00,Wunderground v.1.15,2016-02-10 05:31:00,
2016-02-10 00:36:00,17.1,12.0,30.00,West,262,4.0,8.0,80,0.00,,,0.00,Wunderground v.1.15,2016-02-10 05:36:00,
2016-02-10 00:41:00,17.0,12.2,30.00,WSW,239,2.0,8.0,81,0.00,,,0.00,Wunderground v.1.15,2016-02-10 05:41:00,
2016-02-10 00:46:00,16.9,12.1,30.00,West,261,9.0,9.0,81,0.00,,,0.00,Wunderground v.1.15,2016-02-10 05:46:00,
2016-02-10 00:52:00,16.9,12.1,30.00,WSW,250,5.0,11.0,81,0.00,,,0.00,Wunderground v.1.15,2016-02-10 05:52:00,
2016-02-10 00:57:00,16.9,12.1,30.00,West,264,6.0,11.0,81,0.00,,,0.00,Wunderground v.1.15,2016-02-10 05:57:00,
2016-02-10 01:03:00,16.9,12.1,29.99,WSW,254,5.0,6.0,81,0.00,,,0.00,Wunderground v.1.15,2016-02-10 06:03:00,
2016-02-10 01:08:00,16.8,12.0,30.00,WSW,252,5.0,7.0,81,0.00,,,0.00,Wunderground v.1.15,2016-02-10 06:08:00,
2016-02-10 01:14:00,16.7,12.2,30.00,WSW,257,5.0,6.0,82,0.00,,,0.00,Wunderground v.1.15,2016-02-10 06:14:00,
2016-02-10 01:25:00,16.4,11.6,30.00,WSW,246,5.0,8.0,81,0.00,,,0.00,Wunderground v.1.15,2016-02-10 06:25:00,
2016-02-10 01:30:00,16.4,11.6,29.99,WSW,238,6.0,6.0,81,0.00,,,0.00,Wunderground v.1.15,2016-02-10 06:30:00,
2016-02-10 01:35:00,16.4,11.6,29.99,West,275,6.0,6.0,81,0.00,,,0.00,Wunderground v.1.15,2016-02-10 06:35:00,
2016-02-10 01:41:00,16.2,11.4,29.99,WSW,241,5.0,7.0,81,0.00,,,0.00,Wunderground v.1.15,2016-02-10 06:41:00,
2016-02-10 01:46:00,16.3,11.2,29.99,West,261,8.0,12.0,80,0.00,,,0.00,Wunderground v.1.15,2016-02-10 06:46:00,
2016-02-10 01:51:00,16.3,10.9,29.99,SW,234,10.0,10.0,79,0.00,,,0.00,Wunderground v.1.15,2016-02-10 06:51:00,
2016-02-10 01:57:00,16.3,10.9,29.99,WSW,244,2.0,10.0,79,0.00,,,0.00,Wunderground v.1.15,2016-02-10 06:57:00,
2016-02-10 02:02:00,16.3,10.9,29.99,WSW,244,5.0,6.0,79,0.00,,,0.00,Wunderground v.1.15,2016-02-10 07:02:00,
2016-02-10 02:07:00,16.4,11.0,29.99,WSW,250,6.0,7.0,79,0.00,,,0.00,Wunderground v.1.15,2016-02-10 07:07:00,
2016-02-10 02:12:00,16.6,10.9,30.00,SW,232,4.0,7.0,78,0.00,,,0.00,Wunderground v.1.15,2016-02-10 07:12:00,
2016-02-10 02:17:00,16.7,11.0,30.00,West,267,2.0,13.0,78,0.00,,,0.00,Wunderground v.1.15,2016-02-10 07:17:00,
2016-02-10 02:22:00,16.8,10.8,30.00,WSW,252,9.0,9.0,77,0.00,,,0.00,Wunderground v.1.15,2016-02-10 07:22:00,
2016-02-10 02:27:00,16.9,10.6,29.99,West,262,5.0,13.0,76,0.00,,,0.00,Wunderground v.1.15,2016-02-10 07:27:00,
2016-02-10 02:32:00,17.0,10.7,29.99,West,262,7.0,10.0,76,0.00,,,0.00,Wunderground v.1.15,2016-02-10 07:32:00,
2016-02-10 02:37:00,17.0,10.4,29.99,WSW,240,4.0,11.0,75,0.00,,,0.00,Wunderground v.1.15,2016-02-10 07:37:00,
2016-02-10 02:42:00,17.0,10.4,30.00,WSW,247,3.0,14.0,75,0.00,,,0.00,Wunderground v.1.15,2016-02-10 07:42:00,
2016-02-10 02:47:00,17.0,10.4,29.99,West,273,5.0,14.0,75,0.00,,,0.00,Wunderground v.1.15,2016-02-10 07:47:00,
2016-02-10 02:52:00,16.9,10.6,29.99,WSW,244,6.0,11.0,76,0.00,,,0.00,Wunderground v.1.15,2016-02-10 07:52:00,
2016-02-10 03:03:00,16.8,10.5,29.99,WSW,250,5.0,9.0,76,0.00,,,0.00,Wunderground v.1.15,2016-02-10 08:03:00,
2016-02-10 03:08:00,16.7,10.7,29.99,West,269,5.0,11.0,77,0.00,,,0.00,Wunderground v.1.15,2016-02-10 08:08:00,
2016-02-10 03:13:00,16.7,11.0,29.99,WSW,251,4.0,6.0,78,0.00,,,0.00,Wunderground v.1.15,2016-02-10 08:13:00,
2016-02-10 03:18:00,16.8,11.1,30.00,WSW,246,7.0,11.0,78,0.00,,,0.00,Wunderground v.1.15,2016-02-10 08:18:00,
2016-02-10 03:23:00,16.8,11.4,30.00,WSW,248,6.0,11.0,79,0.00,,,0.00,Wunderground v.1.15,2016-02-10 08:23:00,
2016-02-10 03:28:00,16.8,11.4,30.00,WNW,288,10.0,13.0,79,0.00,,,0.00,Wunderground v.1.15,2016-02-10 08:28:00,
2016-02-10 03:33:00,16.7,11.3,30.00,West,261,5.0,8.0,79,0.00,,,0.00,Wunderground v.1.15,2016-02-10 08:33:00,
2016-02-10 03:38:00,16.6,11.2,30.00,West,277,9.0,11.0,79,0.00,,,0.00,Wunderground v.1.15,2016-02-10 08:38:00,
2016-02-10 03:48:00,16.7,11.6,30.00,WSW,242,7.0,10.0,80,0.00,,,0.00,Wunderground v.1.15,2016-02-10 08:48:00,
2016-02-10 03:54:00,16.6,11.5,30.00,West,259,3.0,7.0,80,0.00,,,0.00,Wunderground v.1.15,2016-02-10 08:54:00,
2016-02-10 03:59:00,16.6,11.5,30.00,WSW,256,3.0,10.0,80,0.00,,,0.00,Wunderground v.1.15,2016-02-10 08:59:00,
2016-02-10 04:04:00,16.6,11.5,30.00,WSW,248,7.0,11.0,80,0.00,,,0.00,Wunderground v.1.15,2016-02-10 09:04:00,
2016-02-10 04:09:00,16.7,11.6,30.00,WSW,240,7.0,12.0,80,0.00,,,0.00,Wunderground v.1.15,2016-02-10 09:09:00,
2016-02-10 04:14:00,16.6,11.5,30.00,SW,230,2.0,9.0,80,0.00,,,0.00,Wunderground v.1.15,2016-02-10 09:14:00,
2016-02-10 04:19:00,16.6,11.8,30.00,WSW,245,5.0,11.0,81,0.00,,,0.00,Wunderground v.1.15,2016-02-10 09:19:00,
2016-02-10 04:24:00,16.6,11.8,30.00,WSW,238,7.0,9.0,81,0.00,,,0.00,Wunderground v.1.15,2016-02-10 09:24:00,
2016-02-10 04:29:00,16.6,11.8,30.00,SW,226,5.0,9.0,81,0.00,,,0.00,Wunderground v.1.15,2016-02-10 09:29:00,
2016-02-10 04:34:00,16.6,11.8,30.00,WSW,239,2.0,9.0,81,0.00,,,0.00,Wunderground v.1.15,2016-02-10 09:34:00,
2016-02-10 04:39:00,16.7,12.2,30.00,West,263,4.0,11.0,82,0.00,,,0.00,Wunderground v.1.15,2016-02-10 09:39:00,
2016-02-10 04:44:00,16.7,12.2,30.00,SW,222,4.0,7.0,82,0.00,,,0.00,Wunderground v.1.15,2016-02-10 09:44:00,
2016-02-10 04:49:00,16.7,12.2,30.00,SSW,194,5.0,9.0,82,0.00,,,0.00,Wunderground v.1.15,2016-02-10 09:49:00,
2016-02-10 04:54:00,16.7,12.2,30.00,WSW,238,7.0,10.0,82,0.00,,,0.00,Wunderground v.1.15,2016-02-10 09:54:00,
2016-02-10 04:59:00,16.7,12.2,30.00,WSW,248,11.0,11.0,82,0.00,,,0.00,Wunderground v.1.15,2016-02-10 09:59:00,
2016-02-10 05:04:00,16.7,12.2,30.00,SW,227,7.0,10.0,82,0.00,,,0.00,Wunderground v.1.15,2016-02-10 10:04:00,
2016-02-10 05:09:00,16.8,12.3,30.01,WSW,244,7.0,10.0,82,0.00,,,0.00,Wunderground v.1.15,2016-02-10 10:09:00,
2016-02-10 05:14:00,16.8,12.3,30.01,West,261,3.0,7.0,82,0.00,,,0.00,Wunderground v.1.15,2016-02-10 10:14:00,
2016-02-10 05:19:00,16.8,12.3,30.01,SW,231,11.0,13.0,82,0.00,,,0.00,Wunderground v.1.15,2016-02-10 10:19:00,
2016-02-10 05:24:00,16.8,12.3,30.01,WSW,238,7.0,11.0,82,0.00,,,0.00,Wunderground v.1.15,2016-02-10 10:24:00,
2016-02-10 05:29:00,16.7,12.2,30.01,WSW,249,7.0,11.0,82,0.00,,,0.00,Wunderground v.1.15,2016-02-10 10:29:00,
2016-02-10 05:34:00,16.7,12.2,30.02,WSW,257,2.0,11.0,82,0.00,,,0.00,Wunderground v.1.15,2016-02-10 10:34:00,
2016-02-10 05:39:00,16.7,12.2,30.02,WSW,242,6.0,11.0,82,0.00,,,0.00,Wunderground v.1.15,2016-02-10 10:39:00,
2016-02-10 05:44:00,16.7,12.2,30.02,WSW,258,5.0,12.0,82,0.00,,,0.00,Wunderground v.1.15,2016-02-10 10:44:00,
2016-02-10 05:49:00,16.8,12.3,30.02,West,261,6.0,12.0,82,0.00,,,0.00,Wunderground v.1.15,2016-02-10 10:49:00,
2016-02-10 05:55:00,16.8,12.3,30.02,SSW,194,4.0,10.0,82,0.00,,,0.00,Wunderground v.1.15,2016-02-10 10:55:00,
2016-02-10 06:00:00,16.8,12.3,30.02,SW,229,4.0,10.0,82,0.00,,,0.00,Wunderground v.1.15,2016-02-10 11:00:00,
2016-02-10 06:05:00,16.8,12.0,30.02,SW,236,6.0,10.0,81,0.00,,,0.00,Wunderground v.1.15,2016-02-10 11:05:00,
2016-02-10 06:15:00,16.8,11.7,30.02,WSW,242,9.0,12.0,80,0.00,,,0.00,Wunderground v.1.15,2016-02-10 11:15:00,
2016-02-10 06:20:00,16.9,11.5,30.02,WSW,257,5.0,12.0,79,0.00,,,0.00,Wunderground v.1.15,2016-02-10 11:20:00,
2016-02-10 06:30:00,16.9,11.2,30.03,SW,232,9.0,13.0,78,0.00,,,0.00,Wunderground v.1.15,2016-02-10 11:30:00,
2016-02-10 06:35:00,16.9,11.2,30.03,WSW,245,6.0,11.0,78,0.00,,,0.00,Wunderground v.1.15,2016-02-10 11:35:00,
2016-02-10 06:40:00,16.8,10.8,30.03,SW,235,6.0,11.0,77,0.00,,,0.00,Wunderground v.1.15,2016-02-10 11:40:00,
2016-02-10 06:45:00,16.8,11.1,30.03,WSW,252,9.0,12.0,78,0.00,,,0.00,Wunderground v.1.15,2016-02-10 11:45:00,
2016-02-10 06:50:00,16.8,11.1,30.03,SW,236,2.0,12.0,78,0.00,,,0.00,Wunderground v.1.15,2016-02-10 11:50:00,
2016-02-10 06:55:00,16.7,11.0,30.03,SSW,212,5.0,9.0,78,0.00,,,0.00,Wunderground v.1.15,2016-02-10 11:55:00,
2016-02-10 07:00:00,16.6,11.2,30.03,WSW,243,9.0,13.0,79,0.00,,,0.00,Wunderground v.1.15,2016-02-10 12:00:00,
2016-02-10 07:05:00,16.4,11.3,30.03,WSW,257,10.0,13.0,80,0.00,,,0.00,Wunderground v.1.15,2016-02-10 12:05:00,
2016-02-10 07:10:00,16.4,11.3,30.03,WSW,237,4.0,13.0,80,0.00,,,0.00,Wunderground v.1.15,2016-02-10 12:10:00,
2016-02-10 07:15:00,16.5,11.4,30.03,WSW,257,7.0,12.0,80,0.00,,,0.00,Wunderground v.1.15,2016-02-10 12:15:00,
2016-02-10 07:30:00,16.5,11.1,30.04,West,277,8.0,15.0,79,0.00,,,0.00,Wunderground v.1.15,2016-02-10 12:30:00,
2016-02-10 07:35:00,16.5,11.1,30.04,West,272,4.0,14.0,79,0.00,,,0.00,Wunderground v.1.15,2016-02-10 12:35:00,
2016-02-10 07:40:00,16.4,11.0,30.04,WSW,250,4.0,14.0,79,0.00,,,0.00,Wunderground v.1.15,2016-02-10 12:40:00,
2016-02-10 07:45:00,16.4,11.0,30.04,WSW,244,6.0,12.0,79,0.00,,,0.00,Wunderground v.1.15,2016-02-10 12:45:00,
2016-02-10 07:50:00,16.3,11.2,30.04,SSW,199,7.0,13.0,80,0.00,,,0.00,Wunderground v.1.15,2016-02-10 12:50:00,
2016-02-10 07:55:00,16.3,11.2,30.04,West,272,3.0,13.0,80,0.00,,,0.00,Wunderground v.1.15,2016-02-10 12:55:00,
2016-02-10 08:00:00,16.3,11.5,30.04,WSW,246,6.0,13.0,81,0.00,,,0.00,Wunderground v.1.15,2016-02-10 13:00:00,
2016-02-10 08:05:00,16.4,11.6,30.04,West,273,5.0,7.0,81,0.00,,,0.00,Wunderground v.1.15,2016-02-10 13:05:00,
2016-02-10 08:10:00,16.4,11.9,30.04,WSW,238,2.0,9.0,82,0.00,,,0.00,Wunderground v.1.15,2016-02-10 13:10:00,
2016-02-10 08:20:00,16.6,12.1,30.05,WSW,253,14.0,14.0,82,0.00,,,0.00,Wunderground v.1.15,2016-02-10 13:20:00,
2016-02-10 08:25:00,16.5,12.0,30.05,WSW,246,6.0,13.0,82,0.00,,,0.00,Wunderground v.1.15,2016-02-10 13:25:00,
2016-02-10 08:30:00,16.3,11.8,30.05,SW,225,6.0,7.0,82,0.00,,,0.00,Wunderground v.1.15,2016-02-10 13:30:00,
2016-02-10 08:35:00,16.2,11.7,30.05,WSW,247,5.0,11.0,82,0.00,,,0.00,Wunderground v.1.15,2016-02-10 13:35:00,
2016-02-10 08:40:00,16.1,11.6,30.06,West,271,4.0,6.0,82,0.00,,,0.00,Wunderground v.1.15,2016-02-10 13:40:00,
2016-02-10 08:45:00,16.1,11.6,30.06,SW,218,12.0,14.0,82,0.00,,,0.00,Wunderground v.1.15,2016-02-10 13:45:00,
2016-02-10 08:50:00,15.8,11.3,30.06,WSW,246,7.0,8.0,82,0.00,,,0.00,Wunderground v.1.15,2016-02-10 13:50:00,
2016-02-10 08:55:00,15.8,11.3,30.06,WSW,255,12.0,14.0,82,0.00,,,0.00,Wunderground v.1.15,2016-02-10 13:55:00,
2016-02-10 09:00:00,15.8,11.3,30.06,SW,223,12.0,12.0,82,0.00,,,0.00,Wunderground v.1.15,2016-02-10 14:00:00,
2016-02-10 09:05:00,15.9,11.1,30.06,SW,216,6.0,13.0,81,0.00,,,0.00,Wunderground v.1.15,2016-02-10 14:05:00,
2016-02-10 09:10:00,15.9,11.1,30.06,SW,236,6.0,7.0,81,0.00,,,0.00,Wunderground v.1.15,2016-02-10 14:10:00,
2016-02-10 09:15:00,16.0,11.2,30.07,West,270,10.0,12.0,81,0.00,,,0.00,Wunderground v.1.15,2016-02-10 14:15:00,
2016-02-10 09:20:00,16.0,10.9,30.07,NW,309,6.0,7.0,80,0.00,,,0.00,Wunderground v.1.15,2016-02-10 14:20:00,
2016-02-10 09:25:00,16.1,11.0,30.07,WSW,247,8.0,14.0,80,0.00,,,0.00,Wunderground v.1.15,2016-02-10 14:25:00,
2016-02-10 09:30:00,16.1,10.7,30.07,WSW,256,7.0,7.0,79,0.00,,,0.00,Wunderground v.1.15,2016-02-10 14:30:00,
2016-02-10 09:35:00,16.2,10.8,30.07,WSW,247,9.0,11.0,79,0.00,,,0.00,Wunderground v.1.15,2016-02-10 14:35:00,
2016-02-10 09:40:00,16.2,10.8,30.07,WSW,246,4.0,7.0,79,0.00,,,0.00,Wunderground v.1.15,2016-02-10 14:40:00,
2016-02-10 09:45:00,16.4,11.0,30.07,WSW,249,14.0,14.0,79,0.00,,,0.00,Wunderground v.1.15,2016-02-10 14:45:00,
2016-02-10 09:50:00,16.4,11.0,30.07,West,261,10.0,10.0,79,0.00,,,0.00,Wunderground v.1.15,2016-02-10 14:50:00,
2016-02-10 09:55:00,16.5,10.8,30.07,WSW,240,5.0,14.0,78,0.00,,,0.00,Wunderground v.1.15,2016-02-10 14:55:00,
2016-02-10 10:00:00,16.5,11.1,30.08,SW,225,7.0,9.0,79,0.00,,,0.00,Wunderground v.1.15,2016-02-10 15:00:00,
2016-02-10 10:10:00,16.7,11.3,30.08,West,270,13.0,13.0,79,0.00,,,0.00,Wunderground v.1.15,2016-02-10 15:10:00,
2016-02-10 10:15:00,16.7,11.3,30.08,WSW,238,9.0,16.0,79,0.00,,,0.00,Wunderground v.1.15,2016-02-10 15:15:00,
2016-02-10 10:26:00,17.5,12.4,30.08,West,261,3.0,7.0,80,0.00,,,0.00,Wunderground v.1.15,2016-02-10 15:26:00,
2016-02-10 10:31:00,17.4,12.0,30.08,SW,232,11.0,13.0,79,0.00,,,0.00,Wunderground v.1.15,2016-02-10 15:31:00,
2016-02-10 10:36:00,17.2,11.8,30.08,West,269,5.0,14.0,79,0.00,,,0.00,Wunderground v.1.15,2016-02-10 15:36:00,
2016-02-10 10:41:00,17.3,11.9,30.08,SW,231,9.0,10.0,79,0.00,,,0.00,Wunderground v.1.15,2016-02-10 15:41:00,
2016-02-10 10:46:00,17.2,11.8,30.08,West,265,6.0,13.0,79,0.00,,,0.00,Wunderground v.1.15,2016-02-10 15:46:00,
2016-02-10 10:51:00,17.1,11.7,30.09,WSW,246,11.0,14.0,79,0.00,,,0.00,Wunderground v.1.15,2016-02-10 15:51:00,
2016-02-10 10:56:00,17.4,12.3,30.09,SW,235,9.0,14.0,80,0.00,,,0.00,Wunderground v.1.15,2016-02-10 15:56:00,
2016-02-10 11:06:00,18.1,12.4,30.09,WSW,237,8.0,16.0,78,0.00,,,0.00,Wunderground v.1.15,2016-02-10 16:06:00,
2016-02-10 11:11:00,18.2,12.8,30.09,West,273,10.0,10.0,79,0.00,,,0.00,Wunderground v.1.15,2016-02-10 16:11:00,
2016-02-10 11:16:00,17.9,11.9,30.10,WSW,242,12.0,17.0,77,0.00,,,0.00,Wunderground v.1.15,2016-02-10 16:16:00,
2016-02-10 11:21:00,18.1,12.4,30.10,WSW,255,9.0,10.0,78,0.00,,,0.00,Wunderground v.1.15,2016-02-10 16:21:00,
2016-02-10 11:26:00,18.5,12.8,30.10,WSW,257,10.0,11.0,78,0.00,,,0.00,Wunderground v.1.15,2016-02-10 16:26:00,
2016-02-10 11:31:00,18.1,11.5,30.10,WSW,250,7.0,9.0,75,0.00,,,0.00,Wunderground v.1.15,2016-02-10 16:31:00,
2016-02-10 11:36:00,18.3,11.7,30.10,WSW,237,10.0,14.0,75,0.00,,,0.00,Wunderground v.1.15,2016-02-10 16:36:00,
2016-02-10 11:41:00,18.2,11.6,30.10,West,259,5.0,10.0,75,0.00,,,0.00,Wunderground v.1.15,2016-02-10 16:41:00,
2016-02-10 11:46:00,18.6,12.3,30.10,WSW,242,5.0,11.0,76,0.00,,,0.00,Wunderground v.1.15,2016-02-10 16:46:00,
2016-02-10 11:51:00,18.1,11.5,30.10,WSW,245,10.0,17.0,75,0.00,,,0.00,Wunderground v.1.15,2016-02-10 16:51:00,
2016-02-10 11:56:00,18.3,12.0,30.10,West,262,11.0,17.0,76,0.00,,,0.00,Wunderground v.1.15,2016-02-10 16:56:00,
2016-02-10 12:01:00,18.6,12.3,30.10,West,259,4.0,11.0,76,0.00,,,0.00,Wunderground v.1.15,2016-02-10 17:01:00,
2016-02-10 12:06:00,18.8,12.2,30.10,WSW,250,4.0,17.0,75,0.00,,,0.00,Wunderground v.1.15,2016-02-10 17:06:00,
2016-02-10 12:11:00,18.5,11.3,30.10,WSW,246,12.0,12.0,73,0.00,,,0.00,Wunderground v.1.15,2016-02-10 17:11:00,
2016-02-10 12:16:00,18.5,11.3,30.10,SW,236,9.0,18.0,73,0.00,,,0.00,Wunderground v.1.15,2016-02-10 17:16:00,
2016-02-10 12:21:00,18.3,10.8,30.10,WNW,290,8.0,10.0,72,0.00,,,0.00,Wunderground v.1.15,2016-02-10 17:21:00,
2016-02-10 12:26:00,18.8,11.3,30.10,WSW,247,9.0,13.0,72,0.00,,,0.00,Wunderground v.1.15,2016-02-10 17:26:00,
2016-02-10 12:31:00,18.8,11.3,30.10,SW,227,16.0,16.0,72,0.00,,,0.00,Wunderground v.1.15,2016-02-10 17:31:00,
2016-02-10 12:36:00,18.6,11.1,30.10,West,261,6.0,20.0,72,0.00,,,0.00,Wunderground v.1.15,2016-02-10 17:36:00,
2016-02-10 12:41:00,18.7,11.2,30.10,WSW,242,11.0,13.0,72,0.00,,,0.00,Wunderground v.1.15,2016-02-10 17:41:00,
2016-02-10 12:46:00,18.8,11.3,30.10,WSW,254,4.0,17.0,72,0.00,,,0.00,Wunderground v.1.15,2016-02-10 17:46:00,
2016-02-10 12:51:00,19.1,11.6,30.10,WSW,247,11.0,14.0,72,0.00,,,0.00,Wunderground v.1.15,2016-02-10 17:51:00,
2016-02-10 12:56:00,18.8,10.9,30.09,WSW,240,11.0,20.0,71,0.00,,,0.00,Wunderground v.1.15,2016-02-10 17:56:00,
2016-02-10 13:01:00,18.9,11.0,30.09,West,261,6.0,12.0,71,0.00,,,0.00,Wunderground v.1.15,2016-02-10 18:01:00,
2016-02-10 13:06:00,19.0,10.8,30.09,WSW,250,5.0,17.0,70,0.00,,,0.00,Wunderground v.1.15,2016-02-10 18:06:00,
2016-02-10 13:11:00,18.8,10.6,30.09,SSW,206,7.0,13.0,70,0.00,,,0.00,Wunderground v.1.15,2016-02-10 18:11:00,
2016-02-10 13:16:00,19.0,10.8,30.09,West,260,15.0,15.0,70,0.00,,,0.00,Wunderground v.1.15,2016-02-10 18:16:00,
2016-02-10 13:21:00,19.0,10.8,30.09,WSW,248,7.0,9.0,70,0.00,,,0.00,Wunderground v.1.15,2016-02-10 18:21:00,
2016-02-10 13:26:00,18.8,10.3,30.09,WSW,247,7.0,14.0,69,0.00,,,0.00,Wunderground v.1.15,2016-02-10 18:26:00,
2016-02-10 13:31:00,18.8,10.6,30.09,WNW,294,12.0,14.0,70,0.00,,,0.00,Wunderground v.1.15,2016-02-10 18:31:00,
2016-02-10 13:36:00,18.7,10.5,30.09,SW,217,9.0,17.0,70,0.00,,,0.00,Wunderground v.1.15,2016-02-10 18:36:00,
2016-02-10 13:41:00,18.5,10.3,30.09,SW,232,7.0,16.0,70,0.00,,,0.00,Wunderground v.1.15,2016-02-10 18:41:00,
2016-02-10 13:46:00,18.5,10.7,30.09,West,261,11.0,16.0,71,0.00,,,0.00,Wunderground v.1.15,2016-02-10 18:46:00,
2016-02-10 13:51:00,18.8,11.3,30.09,West,269,6.0,8.0,72,0.00,,,0.00,Wunderground v.1.15,2016-02-10 18:51:00,
2016-02-10 13:56:00,18.6,10.8,30.09,NW,317,9.0,14.0,71,0.00,,,0.00,Wunderground v.1.15,2016-02-10 18:56:00,
2016-02-10 14:01:00,18.1,10.9,30.09,West,260,14.0,16.0,73,0.00,,,0.00,Wunderground v.1.15,2016-02-10 19:01:00,
2016-02-10 14:06:00,18.0,11.1,30.10,WSW,247,6.0,16.0,74,0.00,,,0.00,Wunderground v.1.15,2016-02-10 19:06:00,
2016-02-10 14:11:00,17.9,10.7,30.09,WNW,291,9.0,11.0,73,0.00,,,0.00,Wunderground v.1.15,2016-02-10 19:11:00,
2016-02-10 14:16:00,18.2,11.0,30.09,NW,311,3.0,11.0,73,0.00,,,0.00,Wunderground v.1.15,2016-02-10 19:16:00,
2016-02-10 14:21:00,18.3,10.8,30.09,West,272,10.0,11.0,72,0.00,,,0.00,Wunderground v.1.15,2016-02-10 19:21:00,
2016-02-10 14:26:00,18.3,10.5,30.09,WSW,238,7.0,11.0,71,0.00,,,0.00,Wunderground v.1.15,2016-02-10 19:26:00,
2016-02-10 14:31:00,18.1,10.0,30.09,WSW,248,14.0,15.0,70,0.00,,,0.00,Wunderground v.1.15,2016-02-10 19:31:00,
2016-02-10 14:37:00,18.1,9.6,30.09,WSW,254,9.0,16.0,69,0.00,,,0.00,Wunderground v.1.15,2016-02-10 19:37:00,
2016-02-10 14:42:00,18.2,9.7,30.09,SSW,195,7.0,17.0,69,0.00,,,0.00,Wunderground v.1.15,2016-02-10 19:42:00,
2016-02-10 14:46:00,18.1,9.6,30.09,WSW,240,5.0,17.0,69,0.00,,,0.00,Wunderground v.1.15,2016-02-10 19:46:00,
2016-02-10 14:52:00,18.1,10.0,30.09,WSW,258,12.0,12.0,70,0.00,,,0.00,Wunderground v.1.15,2016-02-10 19:52:00,
2016-02-10 14:57:00,18.0,9.9,30.09,West,263,5.0,12.0,70,0.00,,,0.00,Wunderground v.1.15,2016-02-10 19:57:00,
2016-02-10 15:02:00,18.1,10.3,30.09,West,277,9.0,10.0,71,0.00,,,0.00,Wunderground v.1.15,2016-02-10 20:02:00,
2016-02-10 15:07:00,18.1,10.3,30.09,West,275,5.0,10.0,71,0.00,,,0.00,Wunderground v.1.15,2016-02-10 20:07:00,
2016-02-10 15:12:00,18.2,10.4,30.09,WSW,242,9.0,14.0,71,0.00,,,0.00,Wunderground v.1.15,2016-02-10 20:12:00,
2016-02-10 15:17:00,17.9,10.4,30.09,WSW,249,9.0,14.0,72,0.00,,,0.00,Wunderground v.1.15,2016-02-10 20:17:00,
2016-02-10 15:22:00,18.0,10.8,30.09,WSW,258,2.0,8.0,73,0.00,,,0.00,Wunderground v.1.15,2016-02-10 20:22:00,
2016-02-10 15:27:00,18.4,11.2,30.09,West,264,6.0,11.0,73,0.00,,,0.00,Wunderground v.1.15,2016-02-10 20:27:00,
2016-02-10 15:32:00,18.1,10.9,30.09,West,269,6.0,11.0,73,0.00,,,0.00,Wunderground v.1.15,2016-02-10 20:32:00,
2016-02-10 15:37:00,18.1,11.2,30.09,WSW,244,3.0,11.0,74,0.00,,,0.00,Wunderground v.1.15,2016-02-10 20:37:00,
2016-02-10 15:47:00,18.3,10.8,30.10,West,267,8.0,13.0,72,0.00,,,0.00,Wunderground v.1.15,2016-02-10 20:47:00,
2016-02-10 15:52:00,18.3,11.1,30.10,West,264,7.0,13.0,73,0.00,,,0.00,Wunderground v.1.15,2016-02-10 20:52:00,
2016-02-10 15:58:00,18.2,11.6,30.10,WSW,242,11.0,13.0,75,0.00,,,0.00,Wunderground v.1.15,2016-02-10 20:58:00,
2016-02-10 16:02:00,18.0,11.7,30.10,WNW,287,8.0,10.0,76,0.00,,,0.00,Wunderground v.1.15,2016-02-10 21:02:00,
2016-02-10 16:08:00,18.0,11.4,30.10,WSW,257,4.0,10.0,75,0.00,,,0.00,Wunderground v.1.15,2016-02-10 21:08:00,
2016-02-10 16:13:00,18.1,11.2,30.10,WSW,257,5.0,10.0,74,0.00,,,0.00,Wunderground v.1.15,2016-02-10 21:13:00,
2016-02-10 16:18:00,18.0,11.1,30.10,West,265,6.0,12.0,74,0.00,,,0.00,Wunderground v.1.15,2016-02-10 21:18:00,